This is the latest recevied weather packets stored in our database for station/object IZ1UQG-N2. If no packets are shown the sender has not sent any weather packets the latest 10 day(s).
| Time | Temp. | Humidity | Pressure | Rain* | Wind** | Luminosity | Snow |
|---|---|---|---|---|---|---|---|
| 1787643520 | 18.89° C | 91% | 1009.8 hPa | 0 mm | - | 146 W/m² | - |
| 1787643462 | 18.89° C | 91% | 1009.6 hPa | 0 mm | - | 146 W/m² | - |
| 1787643402 | 18.89° C | 91% | 1009.6 hPa | 0 mm | - | 148 W/m² | - |
| 1787643342 | 18.89° C | 91% | 1009.7 hPa | 0 mm | - | 146 W/m² | - |
| 1787643281 | 18.33° C | 91% | 1009.7 hPa | 0 mm | - | 142 W/m² | - |
| 1787643221 | 18.33° C | 91% | 1009.6 hPa | 0 mm | - | 137 W/m² | - |
| 1787643160 | 18.33° C | 91% | 1009.6 hPa | 0 mm | - | 132 W/m² | - |
| 1787643100 | 18.33° C | 91% | 1009.7 hPa | 0 mm | - | 128 W/m² | - |
| 1787643040 | 18.33° C | 91% | 1009.7 hPa | 0 mm | - | 111 W/m² | - |
| 1787642980 | 18.89° C | 91% | 1009.7 hPa | 0 mm | - | 102 W/m² | - |
| 1787642922 | 18.89° C | 91% | 1009.7 hPa | 0 mm | - | 95 W/m² | - |
| 1787642861 | 18.89° C | 91% | 1009.6 hPa | 0 mm | - | 90 W/m² | - |
| 1787642801 | 18.89° C | 91% | 1009.7 hPa | 0 mm | - | 86 W/m² | - |
| 1787642741 | 18.89° C | 91% | 1009.7 hPa | 0 mm | - | 83 W/m² | - |
| 1787642681 | 18.89° C | 91% | 1009.7 hPa | 0 mm | - | 77 W/m² | - |
| 1787642620 | 18.89° C | 91% | 1009.7 hPa | 0 mm | - | 76 W/m² | - |
| 1787642560 | 18.33° C | 91% | 1009.7 hPa | 0 mm | - | 74 W/m² | - |
| 1787642500 | 18.33° C | 91% | 1009.8 hPa | 0 mm | - | 72 W/m² | - |
| 1787642440 | 18.33° C | 91% | 1009.7 hPa | 0 mm | - | 70 W/m² | - |
| 1787642382 | 18.33° C | 91% | 1009.7 hPa | 0 mm | - | 69 W/m² | - |
| 1787642321 | 18.33° C | 91% | 1009.6 hPa | 0 mm | - | 62 W/m² | - |
| 1787642261 | 18.33° C | 91% | 1009.6 hPa | 0 mm | - | 60 W/m² | - |
| 1787642201 | 18.33° C | 91% | 1009.6 hPa | 0 mm | - | 58 W/m² | - |
| 1787642141 | 18.33° C | 91% | 1009.6 hPa | 0 mm | - | 56 W/m² | - |
| 1787642081 | 18.33° C | 91% | 1009.7 hPa | 0 mm | - | 54 W/m² | - |
* Rain latest hour (hover to see other rain measurements)
** Current wind speed in m/s (hover to see current wind gust speed)